TimeEST,TemperatureF,Dew PointF,Humidity,Sea Level PressureIn,VisibilityMPH,Wind Direction,Wind SpeedMPH,Gust SpeedMPH,PrecipitationIn,Events,Conditions,WindDirDegrees,DateUTC
12:53 AM,39.0,28.0,65,30.15,10.0,Calm,Calm,-,N/A,,Overcast,0,2013-01-07 05:53:00
1:53 AM,37.0,27.0,67,30.17,10.0,West,4.6,-,N/A,,Mostly Cloudy,280,2013-01-07 06:53:00
2:53 AM,37.9,27.0,65,30.19,10.0,WNW,3.5,-,N/A,,Overcast,290,2013-01-07 07:53:00
3:53 AM,37.9,27.0,65,30.21,10.0,West,3.5,-,N/A,,Overcast,270,2013-01-07 08:53:00
4:53 AM,37.0,27.0,67,30.23,10.0,WNW,9.2,-,N/A,,Overcast,300,2013-01-07 09:53:00
5:53 AM,37.9,27.0,65,30.27,10.0,West,6.9,-,N/A,,Overcast,280,2013-01-07 10:53:00
6:53 AM,37.9,27.0,65,30.30,10.0,West,5.8,-,N/A,,Overcast,280,2013-01-07 11:53:00
7:53 AM,37.0,27.0,67,30.32,10.0,West,4.6,-,N/A,,Overcast,280,2013-01-07 12:53:00
8:53 AM,37.9,26.1,62,30.36,10.0,West,5.8,-,N/A,,Overcast,270,2013-01-07 13:53:00
9:53 AM,39.0,27.0,62,30.40,10.0,WNW,8.1,-,N/A,,Overcast,290,2013-01-07 14:53:00
10:53 AM,39.0,26.1,60,30.41,10.0,WNW,9.2,-,N/A,,Overcast,290,2013-01-07 15:53:00
11:53 AM,39.9,26.1,58,30.41,10.0,WNW,10.4,-,N/A,,Overcast,290,2013-01-07 16:53:00
12:53 PM,39.9,25.0,55,30.40,10.0,West,10.4,-,N/A,,Mostly Cloudy,270,2013-01-07 17:53:00
1:53 PM,39.9,25.0,55,30.40,10.0,WNW,9.2,-,N/A,,Overcast,300,2013-01-07 18:53:00
2:53 PM,39.0,24.1,55,30.41,10.0,WNW,8.1,-,N/A,,Overcast,290,2013-01-07 19:53:00
3:53 PM,39.0,24.1,55,30.41,10.0,NW,4.6,-,N/A,,Overcast,320,2013-01-07 20:53:00
4:53 PM,33.1,24.1,70,30.43,10.0,Calm,Calm,-,N/A,,Clear,0,2013-01-07 21:53:00
6:53 PM,26.1,21.9,84,30.44,7.0,Calm,Calm,-,N/A,,Clear,0,2013-01-07 23:53:00
7:53 PM,25.0,21.0,85,30.43,7.0,Calm,Calm,-,N/A,,Clear,0,2013-01-08 00:53:00
8:53 PM,23.0,19.9,88,30.42,7.0,Calm,Calm,-,N/A,,Clear,0,2013-01-08 01:53:00
9:53 PM,28.0,21.9,78,30.41,7.0,SSW,5.8,-,N/A,,Clear,200,2013-01-08 02:53:00
10:53 PM,30.9,21.9,69,30.41,8.0,Calm,Calm,-,N/A,,Clear,0,2013-01-08 03:53:00
11:53 PM,21.0,18.0,88,30.40,5.0,Calm,Calm,-,N/A,,Clear,0,2013-01-08 04:53:00